Flag for Cambodia Weather past 2 weeks in Phnom Penh, Cambodia

Now
75 °F

Passing clouds.


Feels Like: 77 °F
Forecast: 72 / 87 °F
Wind: 10 mph from North

Location: Phnom-Penh / Pochentong

Current Time: Dec 21, 2014 at 8:15:12 AM

Latest Report: Dec 21, 2014 at 7:30 AM


Visibility: N/A

Pressure: 29.86 "Hg

Humidity: 74%

Dew point: 66 °F

Location of Phnom PenhLocation

Historic Weather in Phnom Penh — Graph

°F

Phnom Penh temperature yesterday

Maximum temperature yesterday: 86 °F (at 12:30 PM)
Minimum temperature yesterday: 75 °F (at 6:00 AM)
Average temperature yesterday: 81 °F

Past Weeks' High & Low Weather Summary

 TemperatureHumidityPressure
High91 °F (Dec 8, 3:00 PM)94% (Dec 6, 10:00 PM)30.01 "Hg (Dec 6, 10:00 PM)
Low72 °F (Dec 18, 6:00 AM)40% (Dec 10, 12:00 PM)29.74 "Hg (Dec 7, 3:00 PM)
Average82 °F67%29.87 "Hg
* Reported Dec 6 7:00 AM — Dec 21 7:00 AM, Phnom Penh, Weather by CustomWeather, © 2014

Note: Actual official high and low records may vary slightly from our data, if they occured in-between our weather recording intervals... More about our weather records

Advertising

Phnom Penh weather history for previous 24 hours

 ConditionsComfort  
Time TempWeatherWind HumidityBarometerVisibility
7:00 AM
Dec 21
75 °FPassing clouds.8 mph74%29.83 "HgN/A
6:30 AM75 °FPassing clouds.9 mph74%29.83 "HgN/A
6:00 AM75 °FPassing clouds.9 mph78%29.80 "HgN/A
1:00 AM77 °FPassing clouds.6 mph83%29.83 "HgN/A
12:30 AM77 °FPassing clouds.6 mph83%29.83 "HgN/A
12:00 AM79 °FPassing clouds.3 mph79%29.86 "HgN/A
11:30 PM
Dec 20
79 °FPassing clouds.5 mph74%29.86 "HgN/A
11:00 PM79 °FPassing clouds.5 mph74%29.86 "HgN/A
10:30 PM79 °FPassing clouds.6 mph74%29.86 "HgN/A
10:00 PM79 °FPassing clouds.7 mph74%29.86 "HgN/A
9:30 PM79 °FPassing clouds.7 mph74%29.86 "HgN/A
9:00 PM81 °FPassing clouds.7 mph66%29.86 "HgN/A
8:30 PM81 °FPassing clouds.8 mph70%29.86 "HgN/A
8:00 PM81 °FPassing clouds.6 mph70%29.86 "HgN/A
7:30 PM82 °FPassing clouds.5 mph66%29.86 "HgN/A
6:30 PM82 °FPassing clouds.5 mph66%29.83 "Hg6 mi
4:30 PM86 °FScattered clouds.10 mph59%29.77 "HgN/A
4:00 PM86 °FPassing clouds.12 mph55%29.77 "HgN/A
3:30 PM86 °FPassing clouds.12 mph55%29.77 "HgN/A
3:00 PM84 °FPassing clouds.12 mph58%29.77 "HgN/A
2:30 PM84 °FPassing clouds.12 mph58%29.77 "HgN/A
2:00 PM84 °FPassing clouds.10 mph58%29.80 "HgN/A
1:30 PM86 °FPassing clouds.10 mph59%29.80 "HgN/A
1:00 PM84 °FPassing clouds.10 mph62%29.83 "HgN/A
12:30 PM86 °FPassing clouds.12 mph59%29.83 "HgN/A
12:00 PM84 °FPassing clouds.10 mph62%29.86 "HgN/A
11:30 AM84 °FPassing clouds.15 mph55%29.89 "HgN/A
11:00 AM82 °FPassing clouds.10 mph62%29.89 "HgN/A
10:30 AM81 °FWarm.12 mph66%29.92 "HgN/A
10:00 AM79 °FWarm.13 mph70%29.92 "HgN/A
9:30 AM77 °FPartly sunny.10 mph74%29.92 "HgN/A
9:00 AM77 °FPartly sunny.9 mph74%29.92 "HgN/A
Weather by CustomWeather, © 2014

See weather overviewHow to use our weather pages